This is the latest recevied weather packets stored in our database for station/object CE3MXM-13. If no packets are shown the sender has not sent any weather packets the latest 10 day(s).
| Time | Temp. | Humidity | Pressure | Rain* | Wind** | Luminosity | Snow |
|---|---|---|---|---|---|---|---|
| 1777913077 | 19.44° C | 45% | 1012.3 hPa | - | - | - | - |
| 1777912777 | 19.44° C | 46% | 1012.1 hPa | - | - | - | - |
| 1777912477 | 19.44° C | 45% | 1012.2 hPa | - | - | - | - |
| 1777912177 | 19.44° C | 49% | 1012.2 hPa | - | - | - | - |
| 1777911876 | 18.89° C | 49% | 1012.2 hPa | - | - | - | - |
| 1777911577 | 18.89° C | 47% | 1012.2 hPa | - | - | - | - |
| 1777911276 | 18.89° C | 50% | 1012.1 hPa | - | - | - | - |
| 1777910976 | 18.33° C | 48% | 1012.2 hPa | - | - | - | - |
| 1777910676 | 18.33° C | 49% | 1012.3 hPa | - | - | - | - |
| 1777910376 | 18.33° C | 50% | 1012.3 hPa | - | - | - | - |
| 1777910076 | 18.89° C | 50% | 1012.4 hPa | - | - | - | - |
| 1777909776 | 18.33° C | 50% | 1012.3 hPa | - | - | - | - |
| 1777909476 | 18.89° C | 49% | 1012.6 hPa | - | - | - | - |
| 1777909176 | 18.89° C | 49% | 1012.6 hPa | - | - | - | - |
| 1777908876 | 18.89° C | 50% | 1012.5 hPa | - | - | - | - |
| 1777908575 | 18.89° C | 49% | 1012.5 hPa | - | - | - | - |
| 1777908276 | 18.89° C | 51% | 1012.5 hPa | - | - | - | - |
| 1777907975 | 18.89° C | 47% | 1012.5 hPa | - | - | - | - |
| 1777907675 | 18.89° C | 49% | 1012.3 hPa | - | - | - | - |
| 1777907375 | 18.89° C | 48% | 1012.5 hPa | - | - | - | - |
| 1777907075 | 18.33° C | 48% | 1012.5 hPa | - | - | - | - |
| 1777906775 | 18.89° C | 51% | 1012.5 hPa | - | - | - | - |
| 1777906475 | 18.33° C | 49% | 1012.4 hPa | - | - | - | - |
| 1777906175 | 18.33° C | 51% | 1012.4 hPa | - | - | - | - |
| 1777905875 | 18.33° C | 52% | 1012.3 hPa | - | - | - | - |
* Rain since midnight (hover to see other rain measurements)
** Current wind speed in m/s (hover to see current wind gust speed)